Home   Weather   Pasadena   Past weeks

Flag for USA Past Weather in Pasadena, Texas, USA — Yesterday and Last 2 Weeks

Now
57 °F

Passing clouds.


Feels Like: 54 °F
Forecast: 54 / 73 °F
Wind: 16 mph from Northwest

Location: Houston / Ellington

Current Time: Apr 23, 2017 at 5:10:50 am

Latest Report: Apr 23, 2017 at 3:50 am


Visibility: 10 mi

Pressure: 30.06 "Hg

Humidity: 63%

Dew Point: 45 °F

Location of PasadenaLocation

Past Weather in Pasadena — Graph

°F

Pasadena Temperature Yesterday

Maximum temperature yesterday: 82 °F (at 10:50 am)
Minimum temperature yesterday: 63 °F (at 10:50 pm)
Average temperature yesterday: 73 °F

High & Low Weather Summary for the Past Weeks

 TemperatureHumidityPressure
High86 °F (Apr 20, 1:50 pm)100% (Apr 11, 1:50 pm)30.22 "Hg (Apr 11, 1:50 pm)
Low57 °F (Apr 23, 3:50 am)37% (Apr 8, 12:50 pm)29.84 "Hg (Apr 22, 1:50 am)
Average73 °F78%30.06 "Hg
* Reported Apr 8 4:50 am — Apr 23 3:50 am, Pasadena, Weather by CustomWeather, © 2017

Note: Actual official high and low records may vary slightly from our data, if they occured in-between our weather recording intervals... More about our weather records

Advertising

Pasadena Weather History for the Previous 24 Hours

Scroll right to see more
 ConditionsComfort  
Time TempWeatherWind HumidityBarometerVisibility
3:50 am
Sun, Apr 23
57 °FPassing clouds.16 mph63%30.06 "Hg10 mi
1:50 am61 °FPassing clouds.17 mph68%30.08 "Hg10 mi
11:50 pm
Sat, Apr 22
63 °FPassing clouds.15 mph64%30.08 "Hg10 mi
10:50 pm63 °FPassing clouds.15 mph64%30.07 "Hg10 mi
9:50 pm64 °FPassing clouds.16 mph68%30.04 "Hg10 mi
8:50 pm66 °FPassing clouds.15 mph68%30.02 "Hg10 mi
7:50 pm66 °FScattered clouds.16 mph68%29.99 "Hg10 mi
6:50 pm70 °FScattered clouds.13 mph73%29.97 "Hg10 mi
5:50 pm73 °FBroken clouds.15 mph65%29.95 "Hg10 mi
4:50 pm77 °FBroken clouds.14 mph65%29.92 "Hg10 mi
3:50 pm79 °FBroken clouds.13 mph65%29.92 "Hg10 mi
2:50 pm81 °FBroken clouds.13 mph62%29.93 "Hg10 mi
12:50 pm82 °FBroken clouds.9 mph62%29.93 "Hg10 mi
11:50 am82 °FBroken clouds.10 mph66%29.94 "Hg10 mi
10:50 am82 °FBroken clouds.9 mph66%29.94 "Hg10 mi
9:50 am79 °FBroken clouds.8 mph74%29.93 "Hg10 mi
7:50 am73 °FPassing clouds.No wind83%29.92 "Hg10 mi
6:50 am70 °FPassing clouds.No wind94%29.90 "Hg10 mi
5:50 am70 °FPassing clouds.No wind94%29.88 "Hg10 mi
Weather by CustomWeather, © 2017

See weather overviewHow to use our weather pages